星链-11339 (STARLINK-11339)

导读

STARLINK-11339是美国太空探索技术公司(SpaceX)于2024年10月30日发射的星链低轨通信卫星,属于Starlink全球卫星互联网项目。该卫星运行在近地轨道,依托星链星座低延迟、高带宽的技术优势,旨在为全球偏远地区提供高速互联网接入服务,同时可为军事、航空等领域提供通信支持,推动全球互联网普及与数字互联互通。

基本信息
目录编号:
61691
目录名称:
STARLINK-11339
国际标识:
2024-195E
轨道中心:
EARTH
卫星名称:
星链-11339
卫星全名:
星链-11339 (STARLINK-11339)
卫星状态:
在轨 (已飞行588 天)
发射日期:
2024-10-30 UTC
国别 :
美国 (US)
星等 :
--
轨道信息
数据来源 国际轨道数据
星历时间: 2026-06-10T09:55:09+0800
8小时前
查看轨道信息
半长轴: 6737.857km
偏心率: 0.0000734
轨道倾角: 53.159°
近地点辐角 89.725°
升交点赤经 290.878°
平近点角 270.385°
近地点: 359.225km
远地点: 360.215km
周期: 91.737分钟
每日圈数: 15.697126
详细信息
固有亮度:
5
最大亮度:
2.5
卫星平台:
Starlink V1.0
覆盖范围:
全球
运营商:
太空探索技术公司
运营商所在国:
美国
制造商(研发单位):
太空探索技术公司
制造商所在国:
美国
使用方式:
暂无
卫星简介
Starlink 计划是 SpaceX 推出的全球卫星互联网项目,通过发射低轨道卫星,为全球尤其是偏远地区提供高速、低延迟的互联网服务。自 2019 年起,Starlink 已部署数千颗卫星,旨在缩小全球数字鸿沟,推动互联网普及。该项目还为军事、航空等行业提供通信支持,带来广泛经济效益。
2D轨道图
3D轨道图
轨道高度分析图
轨道倾角分析图
轨道综合分析图
查看轨道综合分析图